This is the latest recevied weather packets stored in our database for station/object EA1ZE. If no packets are shown the sender has not sent any weather packets the latest 10 day(s).
| Time | Temp. | Humidity | Pressure | Rain* | Wind** | Luminosity | Snow |
|---|---|---|---|---|---|---|---|
| 1777940181 | 7.78° C | 85% | 1014 hPa | 0 mm | - | - | - |
| 1777939293 | 7.78° C | 85% | 1014.1 hPa | 0 mm | - | - | - |
| 1777938371 | 7.78° C | 86% | 1014.1 hPa | 0 mm | - | - | - |
| 1777937464 | 7.78° C | 86% | 1014.2 hPa | 0 mm | - | - | - |
| 1777936551 | 7.78° C | 86% | 1014.2 hPa | 0 mm | - | - | - |
| 1777935648 | 8.33° C | 86% | 1014 hPa | 0 mm | - | - | - |
| 1777934761 | 8.33° C | 85% | 1013.9 hPa | 0 mm | - | - | - |
| 1777933845 | 8.89° C | 85% | 1013.8 hPa | 0.25 mm | - | - | - |
| 1777932942 | 8.89° C | 85% | 1013.6 hPa | 0.25 mm | - | - | - |
| 1777932037 | 8.89° C | 83% | 1013.6 hPa | 0.25 mm | - | - | - |
| 1777931134 | 9.44° C | 81% | 1013.7 hPa | 0.25 mm | - | - | - |
| 1777930253 | 10° C | 80% | 1013.6 hPa | 0 mm | - | - | - |
| 1777929330 | 10.56° C | 81% | 1013.5 hPa | 0 mm | - | - | - |
| 1777928429 | 11.11° C | 81% | 1013.5 hPa | 0 mm | - | - | - |
| 1777927522 | 11.11° C | 80% | 1012.8 hPa | 0 mm | - | - | - |
| 1777926692 | 11.11° C | 83% | 1012.9 hPa | 0 mm | - | - | - |
| 1777925803 | 11.11° C | 84% | 1012.9 hPa | 0 mm | - | - | - |
| 1777924883 | 11.11° C | 84% | 1012.2 hPa | 0 mm | - | - | - |
| 1777923981 | 11.11° C | 83% | 1012 hPa | 0 mm | - | - | - |
| 1777923102 | 11.67° C | 82% | 1011.8 hPa | 0 mm | - | - | - |
| 1777922176 | 11.67° C | 80% | 1011.8 hPa | 0 mm | - | - | - |
| 1777921293 | 11.67° C | 75% | 1011.7 hPa | 0 mm | - | - | - |
| 1777920390 | 11.67° C | 73% | 1011.8 hPa | 0 mm | - | - | - |
| 1777919402 | 12.22° C | 73% | 1011.9 hPa | 0.51 mm | - | - | - |
| 1777918502 | 12.22° C | 71% | 1011.7 hPa | 0.76 mm | - | - | - |
* Rain latest hour (hover to see other rain measurements)
** Current wind speed in m/s (hover to see current wind gust speed)